Williams, AZ

3:42 PM MST on April 25, 2017 (GMT -0700)
Williams

Weather History for KCMR - February, 2013

Change the Weather History Date:

Saturday, February 23, 2013

  Actual Average (K40G) Record (K40G)
Temperature  
Mean Temperature 26 °F -  
Max Temperature 39 °F 43 °F 50 °F (1998)
Min Temperature 14 °F 34 °F 35 °F (1998)
Degree Days  
Heating Degree Days 38    
Moisture  
Dew Point 12 °F    
Average Humidity 64    
Maximum Humidity 86    
Minimum Humidity 38    
Precipitation  
Precipitation 0.00 in - - ()
Sea Level Pressure  
Sea Level Pressure 30.07 in    
Wind  
Wind Speed 8 mph (South)    
Max Wind Speed 23 mph    
Max Gust Speed 33 mph    
Visibility 10 miles    
Events      
Averages and records for this station are not official NWS values.
T = Trace of Precipitation, MM = Missing Value Source: NWS Daily Summary

Daily Weather History Graph

Daily Weather History Graph

Search for Another Location

Airport or City:

Trip Planner

Search our weather history database for the weather conditions in past years. The results will help you decide how hot, cold, wet, or windy it might be!

Date:

Astronomy

Feb. 23, 2013 Rise Set
Actual Time 7:05 AM MST 6:19 PM MST
Civil Twilight 6:39 AM MST 6:44 PM MST
Nautical Twilight 6:10 AM MST 7:14 PM MST
Astronomical Twilight 5:40 AM MST 7:43 PM MST
Moon 4:35 PM MST (2/23) 5:27 AM MST (2/23)
Length of Visible Light 12h 04m
Length of Day
11h 13m
Waxing Gibbous, 95% of the Moon is Illuminated
Feb 23
Waxing Gibbous
Feb 25
Full
Mar 4
Last Quarter
Mar 11
New
Mar 19
First Quarter

Hourly Weather History & Observations

Time (MST) Temp. Windchill Dew Point Humidity Pressure Visibility Wind Dir Wind Speed Gust Speed Precip Events Conditions
12:15 AM 17.6 °F 7.3 °F 12.2 °F 79% 30.17 in 10.0 mi SSE 8.1 mph - N/A   Clear
12:35 AM 17.6 °F 9.3 °F 10.4 °F 73% 30.17 in 10.0 mi South 5.8 mph - N/A   Clear
12:55 AM 15.8 °F - 10.4 °F 79% 30.16 in 10.0 mi Calm Calm - N/A   Clear
1:15 AM 15.8 °F 6.1 °F 10.4 °F 79% 30.16 in 10.0 mi SSE 6.9 mph - N/A   Clear
1:35 AM 15.8 °F 8.6 °F 10.4 °F 79% 30.16 in 10.0 mi South 4.6 mph - N/A   Clear
1:55 AM 14.0 °F 2.9 °F 10.4 °F 86% 30.15 in 10.0 mi SSE 8.1 mph - N/A   Clear
2:15 AM 15.8 °F 6.1 °F 10.4 °F 79% 30.15 in 10.0 mi SSE 6.9 mph - N/A   Clear
2:35 AM 14.0 °F - 10.4 °F 86% 30.15 in 10.0 mi Calm Calm - N/A   Clear
2:55 AM 14.0 °F 3.9 °F 10.4 °F 86% 30.13 in 10.0 mi SSE 6.9 mph - N/A   Clear
3:15 AM 14.0 °F 3.9 °F 10.4 °F 86% 30.12 in 10.0 mi SSE 6.9 mph - N/A   Clear
3:35 AM 14.0 °F 3.9 °F 8.6 °F 79% 30.12 in 10.0 mi SSE 6.9 mph - N/A   Clear
3:55 AM 14.0 °F 3.9 °F 8.6 °F 79% 30.10 in 10.0 mi SE 6.9 mph - N/A   Clear
4:15 AM 14.0 °F 3.9 °F 8.6 °F 79% 30.11 in 10.0 mi SE 6.9 mph - N/A   Clear
4:35 AM 15.8 °F 6.1 °F 10.4 °F 79% 30.11 in 10.0 mi SSE 6.9 mph - N/A   Clear
4:55 AM 14.0 °F 3.9 °F 8.6 °F 79% 30.10 in 10.0 mi SSE 6.9 mph - N/A   Clear
5:15 AM 14.0 °F 1.2 °F 8.6 °F 79% 30.09 in 10.0 mi SSE 10.4 mph - N/A   Clear
5:35 AM 15.8 °F 4.2 °F 8.6 °F 73% 30.08 in 10.0 mi SSE 9.2 mph - N/A   Clear
5:55 AM 15.8 °F 3.4 °F 8.6 °F 73% 30.07 in 10.0 mi SSE 10.4 mph - N/A   Clear
6:15 AM 15.8 °F 2.7 °F 8.6 °F 73% 30.06 in 10.0 mi SSE 11.5 mph - N/A   Clear
6:35 AM 15.8 °F 4.2 °F 8.6 °F 73% 30.06 in 10.0 mi SSE 9.2 mph - N/A   Clear
6:55 AM 15.8 °F 4.2 °F 10.4 °F 79% 30.07 in 10.0 mi SSE 9.2 mph - N/A   Clear
7:15 AM 15.8 °F 5.1 °F 10.4 °F 79% 30.06 in 10.0 mi SSE 8.1 mph - N/A   Clear
7:55 AM 17.6 °F 8.2 °F 10.4 °F 73% 30.09 in 10.0 mi SE 6.9 mph - N/A   Clear
8:15 AM 19.4 °F - 12.2 °F 74% 30.09 in 10.0 mi Calm Calm - N/A   Clear
8:35 AM 24.8 °F - 14.0 °F 64% 30.09 in 10.0 mi Calm Calm - N/A   Clear
8:55 AM 30.2 °F 22.6 °F 14.0 °F 51% 30.07 in 10.0 mi SSW 8.1 mph - N/A   Clear
9:15 AM 33.8 °F 27.7 °F 12.2 °F 41% 30.07 in 10.0 mi SSW 6.9 mph - N/A   Clear
9:35 AM 35.6 °F 28.0 °F 14.0 °F 41% 30.07 in 10.0 mi South 10.4 mph - N/A   Clear
9:55 AM 35.6 °F 26.6 °F 14.0 °F 41% 30.07 in 10.0 mi SW 13.8 mph - N/A   Clear
10:15 AM 37.4 °F 29.3 °F 14.0 °F 38% 30.07 in 10.0 mi SSW 12.7 mph - N/A   Clear
10:35 AM 37.4 °F 30.3 °F 14.0 °F 38% 30.06 in 10.0 mi SSW 10.4 mph 17.3 mph N/A   Clear
10:55 AM 37.4 °F 29.3 °F 14.0 °F 38% 30.04 in 10.0 mi South 12.7 mph 20.7 mph N/A   Clear
11:15 AM 37.4 °F 29.8 °F 15.8 °F 41% 30.03 in 10.0 mi South 11.5 mph 20.7 mph N/A   Clear
11:35 AM 37.4 °F 29.3 °F 15.8 °F 41% 30.03 in 10.0 mi South 12.7 mph - N/A   Clear
11:55 AM 37.4 °F 28.2 °F 15.8 °F 41% 30.02 in 10.0 mi South 16.1 mph 20.7 mph N/A   Clear
12:15 PM 39.2 °F 30.8 °F 17.6 °F 42% 30.02 in 10.0 mi South 15.0 mph 24.2 mph N/A   Clear
12:35 PM 39.2 °F 30.2 °F 15.8 °F 39% 29.99 in 10.0 mi South 17.3 mph 24.2 mph N/A   Clear
12:55 PM 39.2 °F 30.5 °F 17.6 °F 42% 29.95 in 10.0 mi South 16.1 mph 29.9 mph N/A   Clear
1:15 PM 39.2 °F 29.3 °F 19.4 °F 45% 29.92 in 10.0 mi South 20.7 mph 29.9 mph N/A   Clear
1:35 PM 39.2 °F 28.7 °F 19.4 °F 45% 29.90 in 10.0 mi SSW 23.0 mph 33.4 mph N/A   Clear
1:55 PM 39.2 °F 29.0 °F 19.4 °F 45% 29.89 in 10.0 mi SSW 21.9 mph 31.1 mph N/A   Clear